ARIANE 44LP R/B, 19689

Orbit data source: Space-Track

ARIANE 44LP R/B, 19689 is space debris in HEO originally from a launch on Sun, 11 Dec 1988 UTC launched from the French Guiana (FRGUI). Debris objects in space refer to the collection of defunct objects orbiting the Earth. Examples of debris include non-operational satellites, rocket bodies, and fragments generated from explosions, collisions, or faulty payload assembly.

Loading next visibility...
Identifier
19689, 1988-109C
Orbit
HEO
Country
Flag of FRFR
Related business
Manufacturer
Ae/LesM
Mission
Spacecraft
Bus & Motor
ARIANE H10, Unknown motor
Mass
2,260 kg wet, 2,080 kg dry
Launch date (UTC)
1988-12-11 (37 years ago)
Launch vehicle
Unknown
Launch site
French Guiana (FRGUI)
Object type
Payload
Rocket body
Debris
Shape & HBR
Cyl, 7.0 m
Radar Cross Section
31.447 m², Large (>1 m²)

Expand to show TLE details & history
Last TLE update: 1 day ago

TLE from 1 day ago
0 ARIANE 44LP R/B
1 19689U 88109C   26125.10035411  .00000077  00000-0  61917-3 0  9991
2 19689   7.0091 270.8931 7187416 347.7232   1.2395  2.30224150277133
Epoch: 2026-05-05T02:24Z
TLE epoch observation values (Epoch: 2026-05-05T02:24:30.595Z)
Latitude
-0.00006°
Longitude
11.70444°
Altitude
491.285 km
Speed
9.979 km/s
True Right ascension
18h 03m 14s
True Declination
0° 00' 00"
Sunlit
Object was in full shadow at epoch
Visualization orbit readout
Latitude
Unknown
Longitude
Unknown
Altitude
Unknown
Speed
Unknown
Apparent Right ascension
Unknown
Apparent Declination
Unknown
Sunlit
N/A
Visualization observer readout
Local Sidereal Time
10:35:05
Azimuth
Unknown
Elevation
Unknown
Doppler factor
Unknown
Orbital elements
Apogee altitude
35,271.086 km
Perigee altitude
437.427 km
Semi-major axis
24,232.394 km
Eccentricity
0.71874
Inclination
7.0091°
RAAN
270.8931°
Arg. of periapsis
347.7232°
True anomaly
10.8398°
Mean anomaly
1.2395°
Eccentric anomaly
4.39596°
Mean motion
0.57537 °/min
Orbital period
625.68 mins
BSTAR
0.00061917
Loading maneuver chart data...
Computing Atmospheric mass density...
Loading historical data...
Loading historical data...
Loading historical data...
Loading historical data...
Loading historical data...
Loading historical data...
Loading historical data...

Documentation

Showing up to 5 results
|